| time (UTC) | temp F | wind direction | speed MPH | gust MPH | rain 1hr in | rain 24hr in | rain mn in | humidity % | barometer mb |
| 20260901140804 | 72 | 3 | 6.0 | 12.0 | 0.00 | 0.00 | 0.00 | 52 | 1021.0 |
| 20260901135803 | 72 | 8 | 6.0 | 13.0 | 0.00 | 0.00 | 0.00 | 53 | 1021.1 |
| 20260901134803 | 72 | 0 | 6.0 | 12.0 | 0.00 | 0.00 | 0.00 | 52 | 1021.1 |
| 20260901134303 | 72 | 340 | 7.0 | 12.0 | 0.00 | 0.00 | 0.00 | 52 | 1021.2 |
| 20260901133804 | 73 | 348 | 5.0 | 12.0 | 0.00 | 0.00 | 0.00 | 52 | 1021.3 |
| 20260901133303 | 73 | 338 | 6.0 | 12.0 | 0.00 | 0.00 | 0.00 | 52 | 1021.3 |
| 20260901131803 | 72 | 8 | 7.0 | 12.0 | 0.00 | 0.00 | 0.00 | 52 | 1021.4 |
| 20260901130804 | 73 | 316 | 6.0 | 15.0 | 0.00 | 0.00 | 0.00 | 51 | 1021.5 |
| 20260901130304 | 73 | 343 | 6.0 | 12.0 | 0.00 | 0.00 | 0.00 | 51 | 1021.5 |
| 20260901125308 | 73 | 343 | 5.0 | 12.0 | 0.00 | 0.00 | 0.00 | 52 | 1021.6 |
| 20260901124804 | 73 | 339 | 7.0 | 12.0 | 0.00 | 0.00 | 0.00 | 51 | 1021.6 |
| 20260901124304 | 73 | 1 | 7.0 | 12.0 | 0.00 | 0.00 | 0.00 | 51 | 1021.7 |
| 20260901123803 | 73 | 349 | 5.0 | 12.0 | 0.00 | 0.00 | 0.00 | 51 | 1021.7 |
| 20260901123304 | 73 | 317 | 6.0 | 12.0 | 0.00 | 0.00 | 0.00 | 50 | 1021.7 |
| 20260901121803 | 73 | 319 | 7.0 | 12.0 | 0.00 | 0.00 | 0.00 | 52 | 1021.8 |
| 20260901120303 | 73 | 298 | 6.0 | 12.0 | 0.00 | 0.00 | 0.00 | 51 | 1021.8 |
| 20260901115803 | 72 | 343 | 3.0 | 17.0 | 0.00 | 0.00 | 0.00 | 54 | 1021.7 |
| 20260901113804 | 72 | 358 | 5.0 | 12.0 | 0.00 | 0.00 | 0.00 | 53 | 1021.8 |
| 20260901112804 | 71 | 18 | 7.0 | 12.0 | 0.00 | 0.00 | 0.00 | 56 | 1021.8 |
| 20260901111803 | 72 | 16 | 6.0 | 12.0 | 0.00 | 0.00 | 0.00 | 55 | 1021.9 |
| 20260901110803 | 71 | 19 | 5.0 | 9.0 | 0.00 | 0.00 | 0.00 | 55 | 1021.9 |
| 20260901110304 | 71 | 349 | 5.0 | 12.0 | 0.00 | 0.00 | 0.00 | 55 | 1021.9 |
| 20260901104304 | 71 | 336 | 6.0 | 13.0 | 0.00 | 0.00 | 0.00 | 55 | 1022.1 |
| 20260901103304 | 71 | 353 | 7.0 | 10.0 | 0.00 | 0.00 | 0.00 | 55 | 1022.1 |
| 20260901102803 | 71 | 332 | 5.0 | 12.0 | 0.00 | 0.00 | 0.00 | 56 | 1022.0 |
| 20260901102306 | 70 | 12 | 3.0 | 12.0 | 0.00 | 0.00 | 0.00 | 57 | 1022.1 |
| 20260901101804 | 70 | 343 | 7.0 | 10.0 | 0.00 | 0.00 | 0.00 | 57 | 1022.2 |
| 20260901101303 | 70 | 29 | 6.0 | 12.0 | 0.00 | 0.00 | 0.00 | 57 | 1022.2 |
| 20260901100803 | 70 | 7 | 4.0 | 12.0 | 0.00 | 0.00 | 0.00 | 58 | 1022.2 |
| 20260901100304 | 70 | 312 | 4.0 | 12.0 | 0.00 | 0.00 | 0.00 | 58 | 1022.2 |
| 20260901095803 | 70 | 333 | 5.0 | 12.0 | 0.00 | 0.00 | 0.00 | 57 | 1022.2 |
| 20260901095306 | 69 | 334 | 5.0 | 14.0 | 0.00 | 0.00 | 0.00 | 57 | 1022.3 |
| 20260901094803 | 69 | 323 | 7.0 | 14.0 | 0.00 | 0.00 | 0.00 | 57 | 1022.3 |
| 20260901094303 | 69 | 305 | 6.0 | 14.0 | 0.00 | 0.00 | 0.00 | 57 | 1022.3 |
| 20260901093304 | 69 | 344 | 6.0 | 10.0 | 0.00 | 0.00 | 0.00 | 59 | 1022.3 |
| 20260901092804 | 69 | 327 | 6.0 | 10.0 | 0.00 | 0.00 | 0.00 | 58 | 1022.3 |
| 20260901092305 | 69 | 9 | 5.0 | 10.0 | 0.00 | 0.00 | 0.00 | 59 | 1022.3 |
| 20260901090303 | 68 | 344 | 5.0 | 9.0 | 0.00 | 0.00 | 0.00 | 61 | 1022.3 |
| 20260901085305 | 68 | 320 | 5.0 | 9.0 | 0.00 | 0.00 | 0.00 | 61 | 1022.3 |
| 20260901083803 | 67 | 359 | 3.0 | 7.0 | 0.00 | 0.00 | 0.00 | 62 | 1022.3 |
| 20260901083303 | 67 | 354 | 2.0 | 7.0 | 0.00 | 0.00 | 0.00 | 63 | 1022.4 |
| 20260901082804 | 67 | 298 | 4.0 | 7.0 | 0.00 | 0.00 | 0.00 | 63 | 1022.3 |
| 20260901082306 | 66 | 350 | 3.0 | 7.0 | 0.00 | 0.00 | 0.00 | 64 | 1022.3 |
| 20260901081803 | 66 | 305 | 3.0 | 6.0 | 0.00 | 0.00 | 0.00 | 64 | 1022.3 |
| 20260901080303 | 66 | 280 | 1.0 | 3.0 | 0.00 | 0.00 | 0.00 | 63 | 1022.2 |
| 20260901073804 | 63 | 154 | 0.0 | 0.0 | 0.00 | 0.00 | 0.00 | 70 | 1022.3 |
| 20260901073303 | 63 | 155 | 0.0 | 0.0 | 0.00 | 0.00 | 0.00 | 71 | 1022.3 |
| 20260901072803 | 62 | 156 | 0.0 | 0.0 | 0.00 | 0.00 | 0.00 | 73 | 1022.3 |
| 20260901071804 | 61 | 156 | 0.0 | 0.0 | 0.00 | 0.00 | 0.00 | 75 | 1022.4 |
| 20260901071304 | 60 | 156 | 0.0 | 2.0 | 0.00 | 0.00 | 0.00 | 76 | 1022.4 |
| 20260901070804 | 59 | 155 | 0.0 | 2.0 | 0.00 | 0.00 | 0.00 | 78 | 1022.3 |
| 20260901070304 | 59 | 155 | 1.0 | 3.0 | 0.00 | 0.00 | 0.00 | 79 | 1022.3 |
| 20260901064304 | 57 | 0 | 2.0 | 3.0 | 0.00 | 0.00 | 0.00 | 81 | 1022.4 |
| 20260901062804 | 56 | 0 | 3.0 | 3.0 | 0.00 | 0.00 | 0.00 | 83 | 1022.5 |
| 20260901062309 | 56 | 0 | 2.0 | 3.0 | 0.00 | 0.00 | 0.00 | 84 | 1022.5 |
| 20260901061804 | 55 | 0 | 2.0 | 3.0 | 0.00 | 0.00 | 0.00 | 85 | 1022.4 |
| 20260901060304 | 54 | 0 | 3.0 | 5.0 | 0.00 | 0.00 | 0.00 | 87 | 1022.5 |
| 20260901054304 | 53 | 0 | 1.0 | 3.0 | 0.00 | 0.00 | 0.00 | 88 | 1022.4 |
| 20260901053804 | 53 | 0 | 1.0 | 5.0 | 0.00 | 0.00 | 0.00 | 89 | 1022.4 |
| 20260901053304 | 53 | 0 | 2.0 | 5.0 | 0.00 | 0.00 | 0.00 | 89 | 1022.4 |
| 20260901052803 | 53 | 156 | 3.0 | 5.0 | 0.00 | 0.00 | 0.00 | 89 | 1022.4 |
| 20260901052306 | 53 | 0 | 1.0 | 5.0 | 0.00 | 0.00 | 0.00 | 89 | 1022.4 |
| 20260901051803 | 53 | 0 | 0.0 | 3.0 | 0.00 | 0.00 | 0.00 | 89 | 1022.4 |
| 20260901051304 | 53 | 0 | 0.0 | 3.0 | 0.00 | 0.00 | 0.00 | 90 | 1022.4 |
| 20260901050804 | 53 | 0 | 2.0 | 3.0 | 0.00 | 0.00 | 0.00 | 90 | 1022.4 |
| 20260901045306 | 52 | 0 | 0.0 | 3.0 | 0.00 | 0.00 | 0.00 | 89 | 1022.4 |
| 20260901044804 | 52 | 0 | 0.0 | 3.0 | 0.00 | 0.00 | 0.00 | 89 | 1022.4 |
| 20260901042803 | 53 | 0 | 1.0 | 5.0 | 0.00 | 0.00 | 0.00 | 88 | 1022.3 |
| 20260901042306 | 53 | 0 | 1.0 | 5.0 | 0.00 | 0.00 | 0.00 | 87 | 1022.3 |
| 20260901041803 | 54 | 0 | 0.0 | 0.0 | 0.00 | 0.00 | 0.00 | 88 | 1022.3 |
| 20260901041304 | 54 | 1 | 0.0 | 0.0 | 0.00 | 0.00 | 0.00 | 88 | 1022.2 |
| 20260901035803 | 54 | 0 | 0.0 | 0.0 | 0.00 | 0.00 | 0.00 | 87 | 1022.2 |
| 20260901034803 | 54 | 0 | 0.0 | 0.0 | 0.00 | 0.00 | 0.00 | 87 | 1022.1 |
| 20260901034303 | 54 | 0 | 0.0 | 0.0 | 0.00 | 0.00 | 0.00 | 87 | 1022.1 |
| 20260901033804 | 54 | 0 | 0.0 | 0.0 | 0.00 | 0.00 | 0.00 | 86 | 1022.1 |
| 20260901032804 | 55 | 0 | 0.0 | 0.0 | 0.00 | 0.00 | 0.00 | 86 | 1022.1 |
| 20260901031303 | 55 | 0 | 0.0 | 0.0 | 0.00 | 0.00 | 0.00 | 85 | 1022.3 |
| 20260901030304 | 56 | 0 | 0.0 | 0.0 | 0.00 | 0.00 | 0.00 | 85 | 1022.3 |
| 20260901025804 | 56 | 0 | 0.0 | 0.0 | 0.00 | 0.00 | 0.00 | 84 | 1022.4 |
| 20260901025306 | 56 | 0 | 0.0 | 0.0 | 0.00 | 0.00 | 0.00 | 84 | 1022.4 |
| 20260901023804 | 56 | 0 | 0.0 | 0.0 | 0.00 | 0.01 | 0.00 | 84 | 1022.4 |
| 20260901023304 | 56 | 0 | 0.0 | 0.0 | 0.00 | 0.01 | 0.00 | 84 | 1022.6 |
| 20260901022305 | 56 | 0 | 0.0 | 0.0 | 0.00 | 0.02 | 0.00 | 83 | 1022.5 |
| 20260901021804 | 56 | 0 | 0.0 | 0.0 | 0.00 | 0.02 | 0.00 | 83 | 1022.6 |
| 20260901020803 | 56 | 0 | 0.0 | 0.0 | 0.00 | 0.02 | 0.00 | 83 | 1022.5 |
| 20260901020303 | 57 | 0 | 0.0 | 0.0 | 0.00 | 0.02 | 0.00 | 83 | 1022.6 |
| 20260901015803 | 57 | 96 | 0.0 | 0.0 | 0.00 | 0.02 | 0.00 | 83 | 1022.5 |
| 20260901014803 | 57 | 114 | 0.0 | 0.0 | 0.00 | 0.02 | 0.00 | 82 | 1022.5 |
| 20260901014304 | 57 | 137 | 0.0 | 0.0 | 0.00 | 0.02 | 0.00 | 82 | 1022.5 |
| 20260901013304 | 57 | 140 | 0.0 | 1.0 | 0.00 | 0.02 | 0.00 | 82 | 1022.5 |
| 20260901012804 | 57 | 142 | 0.0 | 1.0 | 0.00 | 0.02 | 0.00 | 81 | 1022.4 |
| 20260901011304 | 57 | 139 | 1.0 | 3.0 | 0.00 | 0.02 | 0.00 | 81 | 1022.5 |
| 20260901010804 | 58 | 349 | 0.0 | 3.0 | 0.00 | 0.02 | 0.00 | 81 | 1022.5 |
| 20260901010303 | 58 | 358 | 1.0 | 3.0 | 0.00 | 0.02 | 0.00 | 81 | 1022.5 |
| 20260901005803 | 58 | 126 | 1.0 | 2.0 | 0.00 | 0.02 | 0.00 | 81 | 1022.4 |
| 20260901004304 | 58 | 122 | 0.0 | 3.0 | 0.00 | 0.02 | 0.00 | 80 | 1022.4 |
| 20260901003804 | 58 | 115 | 0.0 | 3.0 | 0.00 | 0.02 | 0.00 | 80 | 1022.3 |
| 20260901003304 | 58 | 121 | 0.0 | 3.0 | 0.00 | 0.02 | 0.00 | 80 | 1022.4 |
| 20260901002807 | 58 | 121 | 0.0 | 3.0 | 0.00 | 0.02 | 0.00 | 80 | 1022.4 |
| 20260901002305 | 58 | 121 | 2.0 | 8.0 | 0.00 | 0.02 | 0.00 | 80 | 1022.4 |
| 20260901001803 | 58 | 0 | 2.0 | 8.0 | 0.00 | 0.02 | 0.00 | 80 | 1022.3 |
| 20260901000803 | 58 | 0 | 1.0 | 3.0 | 0.00 | 0.02 | 0.00 | 80 | 1022.4 |
| 20260901000303 | 58 | 0 | 2.0 | 3.0 | 0.00 | 0.02 | 0.00 | 80 | 1022.3 |
| 20260831234804 | 58 | 0 | 2.0 | 3.0 | 0.00 | 0.02 | 0.00 | 79 | 1022.5 |
| 20260831234304 | 58 | 0 | 2.0 | 3.0 | 0.00 | 0.02 | 0.00 | 79 | 1022.5 |
| 20260831233804 | 58 | 0 | 1.0 | 3.0 | 0.00 | 0.02 | 0.00 | 79 | 1022.5 |
| 20260831232804 | 59 | 0 | 1.0 | 3.0 | 0.00 | 0.02 | 0.00 | 78 | 1022.6 |
| 20260831232306 | 59 | 0 | 1.0 | 3.0 | 0.00 | 0.02 | 0.00 | 78 | 1022.4 |
| 20260831231804 | 59 | 0 | 1.0 | 3.0 | 0.00 | 0.02 | 0.00 | 78 | 1022.4 |
| 20260831231304 | 59 | 0 | 0.0 | 3.0 | 0.00 | 0.02 | 0.00 | 77 | 1022.4 |
| 20260831230803 | 60 | 0 | 1.0 | 3.0 | 0.00 | 0.02 | 0.00 | 77 | 1022.4 |
| 20260831225804 | 60 | 0 | 0.0 | 2.0 | 0.00 | 0.02 | 0.00 | 75 | 1022.5 |
| 20260831225306 | 60 | 0 | 0.0 | 3.0 | 0.00 | 0.02 | 0.00 | 75 | 1022.5 |
| 20260831224807 | 60 | 0 | 1.0 | 3.0 | 0.00 | 0.02 | 0.00 | 74 | 1022.4 |
| 20260831223805 | 61 | 0 | 0.0 | 3.0 | 0.00 | 0.02 | 0.00 | 74 | 1022.4 |
| 20260831222306 | 61 | 0 | 1.0 | 2.0 | 0.00 | 0.02 | 0.00 | 73 | 1022.5 |
| 20260831221803 | 61 | 0 | 0.0 | 3.0 | 0.00 | 0.02 | 0.00 | 72 | 1022.4 |
| 20260831221304 | 62 | 0 | 2.0 | 3.0 | 0.00 | 0.02 | 0.00 | 72 | 1022.4 |
| 20260831220309 | 62 | 0 | 0.0 | 2.0 | 0.00 | 0.02 | 0.00 | 70 | 1022.4 |
| 20260831215803 | 62 | 0 | 0.0 | 2.0 | 0.00 | 0.02 | 0.02 | 70 | 1022.4 |
| 20260831215306 | 62 | 0 | 1.0 | 2.0 | 0.00 | 0.02 | 0.02 | 70 | 1022.3 |
| 20260831214803 | 62 | 0 | 0.0 | 0.0 | 0.00 | 0.02 | 0.02 | 70 | 1022.3 |
| 20260831214303 | 62 | 0 | 0.0 | 0.0 | 0.00 | 0.02 | 0.02 | 69 | 1022.3 |
| 20260831213803 | 62 | 0 | 0.0 | 0.0 | 0.00 | 0.02 | 0.02 | 68 | 1022.2 |
| 20260831213304 | 63 | 0 | 0.0 | 1.0 | 0.00 | 0.02 | 0.02 | 67 | 1022.2 |
| 20260831212306 | 63 | 0 | 0.0 | 0.0 | 0.00 | 0.02 | 0.02 | 66 | 1022.2 |
| 20260831211804 | 64 | 0 | 0.0 | 3.0 | 0.00 | 0.02 | 0.02 | 65 | 1022.1 |
| 20260831211308 | 64 | 0 | 0.0 | 3.0 | 0.00 | 0.02 | 0.02 | 64 | 1022.0 |
| 20260831210804 | 64 | 0 | 2.0 | 3.0 | 0.00 | 0.02 | 0.02 | 63 | 1022.0 |
| 20260831210303 | 65 | 0 | 1.0 | 3.0 | 0.00 | 0.02 | 0.02 | 62 | 1021.9 |
| 20260831205803 | 65 | 0 | 0.0 | 2.0 | 0.00 | 0.02 | 0.02 | 61 | 1021.9 |
| 20260831204803 | 66 | 237 | 1.0 | 2.0 | 0.00 | 0.02 | 0.02 | 59 | 1022.0 |
| 20260831203803 | 66 | 246 | 1.0 | 5.0 | 0.00 | 0.02 | 0.02 | 58 | 1022.0 |
| 20260831203303 | 66 | 246 | 2.0 | 6.0 | 0.00 | 0.02 | 0.02 | 58 | 1022.0 |
| 20260831202306 | 66 | 269 | 2.0 | 6.0 | 0.00 | 0.02 | 0.02 | 57 | 1021.9 |
| 20260831200803 | 67 | 269 | 3.0 | 8.0 | 0.00 | 0.02 | 0.02 | 56 | 1021.8 |
| 20260831200304 | 67 | 255 | 5.0 | 9.0 | 0.00 | 0.02 | 0.02 | 56 | 1021.7 |
| 20260831195306 | 67 | 273 | 6.0 | 10.0 | 0.00 | 0.02 | 0.02 | 56 | 1021.5 |
| 20260831194807 | 67 | 261 | 5.0 | 8.0 | 0.00 | 0.02 | 0.02 | 58 | 1021.5 |
| 20260831194305 | 67 | 263 | 5.0 | 12.0 | 0.00 | 0.02 | 0.02 | 59 | 1021.5 |
| 20260831193303 | 67 | 269 | 6.0 | 12.0 | 0.00 | 0.02 | 0.02 | 61 | 1021.3 |
| 20260831192305 | 66 | 209 | 3.0 | 9.0 | 0.00 | 0.02 | 0.02 | 66 | 1021.1 |
| 20260831191804 | 66 | 338 | 6.0 | 9.0 | 0.00 | 0.02 | 0.02 | 67 | 1020.9 |
| 20260831191304 | 66 | 0 | 1.0 | 8.0 | 0.00 | 0.02 | 0.02 | 70 | 1020.8 |
| 20260831190803 | 65 | 0 | 5.0 | 8.0 | 0.00 | 0.02 | 0.02 | 73 | 1020.8 |
| 20260831185803 | 64 | 0 | 1.0 | 8.0 | 0.00 | 0.02 | 0.02 | 78 | 1020.8 |
| 20260831185306 | 64 | 0 | 1.0 | 3.0 | 0.00 | 0.02 | 0.02 | 80 | 1020.8 |
| 20260831184804 | 64 | 0 | 2.0 | 7.0 | 0.00 | 0.02 | 0.02 | 80 | 1020.5 |
| 20260831183303 | 65 | 0 | 2.0 | 6.0 | 0.00 | 0.02 | 0.02 | 77 | 1020.0 |
| 20260831182305 | 65 | 0 | 0.0 | 0.0 | 0.00 | 0.02 | 0.02 | 75 | 1019.7 |
| 20260831181803 | 66 | 0 | 0.0 | 3.0 | 0.00 | 0.02 | 0.02 | 75 | 1019.5 |
| 20260831181307 | 66 | 0 | 0.0 | 3.0 | 0.00 | 0.02 | 0.02 | 74 | 1019.6 |
| 20260831180803 | 66 | 0 | 0.0 | 0.0 | 0.00 | 0.02 | 0.02 | 74 | 1019.5 |
| 20260831180304 | 66 | 0 | 0.0 | 0.0 | 0.00 | 0.02 | 0.02 | 73 | 1019.3 |
| 20260831175803 | 66 | 0 | 0.0 | 3.0 | 0.00 | 0.02 | 0.02 | 73 | 1019.3 |
| 20260831174804 | 67 | 0 | 2.0 | 3.0 | 0.00 | 0.02 | 0.02 | 72 | 1019.3 |
| 20260831172306 | 67 | 140 | 0.0 | 3.0 | 0.00 | 0.02 | 0.02 | 72 | 1019.0 |
| 20260831171803 | 67 | 0 | 0.0 | 3.0 | 0.00 | 0.02 | 0.02 | 72 | 1019.0 |
| 20260831170803 | 67 | 0 | 2.0 | 3.0 | 0.00 | 0.02 | 0.02 | 72 | 1018.9 |
| 20260831165804 | 67 | 0 | 2.0 | 7.0 | 0.00 | 0.02 | 0.02 | 72 | 1018.9 |
| 20260831164303 | 67 | 0 | 5.0 | 8.0 | 0.00 | 0.02 | 0.02 | 72 | 1018.7 |
| 20260831163803 | 67 | 0 | 2.0 | 6.0 | 0.00 | 0.02 | 0.02 | 72 | 1018.7 |
| 20260831163303 | 67 | 0 | 2.0 | 6.0 | 0.00 | 0.02 | 0.02 | 72 | 1018.8 |
| 20260831162803 | 68 | 0 | 3.0 | 6.0 | 0.00 | 0.02 | 0.02 | 71 | 1018.8 |
| 20260831162306 | 68 | 0 | 2.0 | 7.0 | 0.00 | 0.02 | 0.02 | 69 | 1018.8 |
| 20260831160803 | 68 | 0 | 5.0 | 12.0 | 0.00 | 0.02 | 0.02 | 67 | 1018.9 |
| 20260831154804 | 69 | 0 | 5.0 | 8.0 | 0.00 | 0.02 | 0.02 | 66 | 1018.8 |
| 20260831154303 | 69 | 0 | 3.0 | 8.0 | 0.00 | 0.02 | 0.02 | 67 | 1018.8 |
| 20260831153304 | 69 | 162 | 5.0 | 12.0 | 0.00 | 0.02 | 0.02 | 67 | 1018.7 |
| 20260831152804 | 69 | 192 | 3.0 | 10.0 | 0.00 | 0.02 | 0.02 | 66 | 1018.8 |
| 20260831152306 | 69 | 19 | 5.0 | 10.0 | 0.00 | 0.02 | 0.02 | 66 | 1018.8 |
| 20260831151303 | 68 | 0 | 3.0 | 12.0 | 0.00 | 0.02 | 0.02 | 67 | 1018.7 |
| 20260831150804 | 68 | 0 | 4.0 | 12.0 | 0.00 | 0.02 | 0.02 | 68 | 1018.8 |
| 20260831150304 | 68 | 0 | 4.0 | 8.0 | 0.00 | 0.02 | 0.02 | 69 | 1018.8 |
| 20260831145804 | 68 | 0 | 3.0 | 8.0 | 0.00 | 0.02 | 0.02 | 69 | 1019.1 |
| 20260831145306 | 67 | 0 | 5.0 | 7.0 | 0.00 | 0.02 | 0.02 | 69 | 1019.1 |
| 20260831144804 | 67 | 0 | 3.0 | 7.0 | 0.00 | 0.02 | 0.02 | 70 | 1019.1 |
| 20260831144304 | 67 | 0 | 5.0 | 8.0 | 0.00 | 0.02 | 0.02 | 71 | 1019.2 |
| 20260831143804 | 67 | 0 | 5.0 | 8.0 | 0.00 | 0.02 | 0.02 | 71 | 1019.1 |
| 20260831143303 | 67 | 0 | 3.0 | 7.0 | 0.00 | 0.02 | 0.02 | 70 | 1019.2 |
| 20260831142803 | 67 | 0 | 5.0 | 7.0 | 0.00 | 0.02 | 0.02 | 70 | 1019.2 |
| 20260831142306 | 68 | 0 | 3.0 | 7.0 | 0.00 | 0.02 | 0.02 | 68 | 1019.3 |